[[{"header":{"parameterUnit":"m.s-1","parameterCategory":1,"la1":30.2991,"la2":30.254,"lo1":-89.0895,"lo2":-89.0444,"dy":0.0017,"dx":0.0017,"nx":28,"ny":28,"refTime":"2025-03-27T21:00:00:Z","depth":0,"parameterNumber":2,"parameterNumberName":"U-component_of_WINDS"},"data":[0,0,0,0,0,0,0,0,0,0,0,0,0,0,0,0,0,0,0,0,0,0,0,0,0,0,0,0,0,0,0,0,0,0,0,0,0,0,0,0,0,0,0,0,0,0,0,0,0,0,0,0,0,0,0,0,0,0,-5.6392,-5.6393,0,-5.6513,-5.6515,-5.6516,-5.644,-5.6437,-5.6433,-5.643,-5.6553,-5.6559,-5.6566,0,0,0,0,0,0,0,0,0,0,0,0,0,-5.6094,-5.61,-5.6392,-5.6393,-5.6395,-5.6513,-5.6515,-5.6517,-5.6441,-5.6437,-5.6432,-5.6428,-5.6551,-5.6558,-5.6566,0,0,0,0,0,0,0,0,0,0,0,0,0,-5.622,-5.6102,-5.6392,-5.6372,-5.6371,-5.6513,-5.6515,-5.6517,-5.6442,-5.6437,-5.6431,-5.6426,-5.6548,-5.6558,-5.6567,-5.6736,0,0,-5.6598,-5.6602,0,0,0,0,0,0,0,0,-5.6213,-5.6231,-5.6373,-5.6373,-5.6373,-5.6456,-5.6455,-5.659,-5.6443,-5.6415,-5.643,-5.6424,-5.6525,-5.6536,-5.6571,-5.6741,-5.6747,-5.6599,-5.6605,-5.6609,-5.6612,0,0,0,0,0,0,0,-5.6205,-5.6226,-5.644,-5.6375,-5.6375,-5.6356,-5.6368,-5.648,-5.6498,-5.6417,-5.6412,-5.6427,-5.6524,-5.6562,-5.6573,-5.6748,-5.6598,-5.6607,-5.6613,-5.6617,-5.7063,-5.7068,0,0,0,0,0,0,-5.6198,-5.6219,-5.6436,-5.6443,-5.6278,-5.6366,-5.6379,-5.6435,-5.6497,-5.6501,-5.6432,-5.6423,-5.6547,-5.6562,-5.6577,-5.6777,-5.6609,-5.6618,-5.6624,-5.7057,-5.7064,-5.707,0,0,0,0,0,0,-5.6191,-5.6218,-5.6431,-5.633,-5.6356,-5.6377,-5.644,-5.644,-5.6477,-5.6508,-5.6511,-5.6467,-5.6544,-5.6563,-5.6697,-5.678,-5.6622,-5.6631,-5.705,-5.7059,-5.7067,-5.7178,0,0,0,0,0,0,-5.6183,-5.6216,-5.628,-5.6332,-5.6361,-5.6549,-5.6445,-5.6446,-5.6495,-5.6485,-5.6542,-5.6546,-5.6541,-5.6682,-5.6707,-5.6791,-5.6639,-5.7042,-5.7054,-5.7064,-5.7167,-5.719,-5.7209,0,0,0,0,0,-5.6173,-5.6306,-5.6283,-5.631,-5.6442,-5.6554,-5.6571,-5.6562,-5.6502,-5.6566,-5.6586,-5.6544,-5.6768,-5.6697,-5.6723,-5.6812,-5.7037,-5.7051,-5.7064,-5.7158,-5.7185,-5.7209,0,0,0,0,0,0,-5.6262,-5.6312,-5.6288,-5.6442,-5.6494,-5.6541,-5.6621,-5.6592,-5.6662,-5.665,-5.6637,-5.665,-5.6789,-5.6814,-5.6734,-5.6978,-5.6893,-5.6912,-5.6956,-5.6982,-5.7003,-5.6992,-5.6647,0,0,0,0,0,-5.63,-5.6387,-5.6426,-5.6558,-5.6586,-5.66,-5.6648,-5.6638,-5.6691,-5.6713,-5.6742,-5.6795,-5.6878,-5.6932,-5.7009,-5.7172,-5.7183,-5.7246,-5.7267,-5.7284,-5.73,-5.7387,-5.7416,-5.7114,-5.7114,-5.7114,0,0,-5.6378,-5.6416,-5.6472,-5.6577,-5.6616,-5.6706,-5.6619,-5.6717,-5.6784,-5.6727,-5.6854,-5.6879,-5.6938,-5.7086,-5.7153,-5.7112,-5.7387,-5.7301,-5.7315,-5.7321,-5.7404,-5.7432,-5.7458,-5.7123,-5.7121,-5.712,0,0,-5.6565,-5.6605,-5.6718,-5.676,-5.6821,-5.683,-5.6858,-5.691,-5.6924,-5.7052,-5.7011,-5.7091,-5.7233,-5.7276,-5.7317,-5.7525,-5.7488,-5.7551,-5.7659,-5.7744,-5.7768,-5.7789,-5.7861,-5.7887,-5.7567,-5.7568,-5.7568,0,-5.6654,-5.6789,-5.678,-5.6883,-5.693,-5.6885,-5.7,-5.7041,-5.7124,-5.7158,-5.7111,-5.7289,-5.7325,-5.7483,-5.7534,-5.7569,-5.7599,-5.7542,-5.7766,-5.7786,-5.7806,-5.7874,-5.7902,-5.7574,-5.7574,-5.7573,-5.7572,0,-5.6894,-5.6989,-5.7073,-5.7155,-5.7213,-5.7321,-5.7329,-5.7388,-5.7374,-5.7388,-5.7519,-5.7562,-5.7647,-5.7685,-5.7672,-5.7842,-5.7813,-5.7767,-5.768,-5.7842,-5.7906,-5.7932,-5.7584,-5.7582,-5.758,-5.7578,0,0,-5.7137,-5.7216,-5.7247,-5.7284,-5.735,-5.7422,-5.7529,-5.7613,-5.7663,-5.7724,-5.7812,-5.7935,-5.7892,-5.7939,-5.7931,-5.8006,-5.8166,-5.795,-5.7951,-5.7986,-5.8354,-5.8386,-5.8417,-5.8144,-5.8149,-5.8153,-5.8348,0,-5.7327,-5.7513,-5.751,-5.7682,-5.7769,-5.7729,-5.7822,-5.7873,-5.789,-5.7966,-5.7984,-5.8071,-5.8009,-5.8036,-5.811,-5.8131,-5.8239,-5.8118,-5.8224,-5.8228,-5.8207,-5.8451,-5.8485,-5.8667,-5.8374,-5.8378,-5.8381,0,-5.7572,-5.7641,-5.7822,-5.7876,-5.7912,-5.7996,-5.8073,-5.8147,-5.8204,-5.8211,-5.8265,-5.8245,-5.8353,-5.8268,-5.8416,-5.8334,-5.8378,-5.8396,-5.8403,-5.8409,-5.8312,-5.8461,-5.8725,-5.8751,-5.8421,-5.8418,-5.8415,0,-5.7728,-5.7867,-5.7993,-5.8026,-5.8093,-5.8152,-5.8183,-5.8235,-5.8286,-5.8355,-5.8387,-5.8468,-5.8511,-5.8573,-5.8576,-5.8514,-5.8726,-5.864,-5.8733,-5.8733,-5.8776,-5.8773,-5.9047,-5.8811,-5.8811,-5.881,-5.8809,0,-5.7937,-5.8049,-5.8064,-5.8141,-5.8265,-5.8262,-5.8385,-5.841,-5.8458,-5.8539,-5.8511,-5.8588,-5.8589,-5.8667,-5.8671,-5.8793,-5.8813,-5.8821,-5.882,-5.8821,-5.882,-5.8847,-5.8833,-5.8817,-5.8816,-5.8814,-5.8813,0,-5.813,-5.8145,-5.8279,-5.8333,-5.8349,-5.8438,-5.8483,-5.8557,-5.8573,-5.8676,-5.8701,-5.8725,-5.8816,-5.8827,-5.8933,-5.8935,-5.9081,-5.9069,-5.9062,-5.9059,-5.915,-5.914,-5.9449,-5.9488,-5.9229,-5.9232,-5.9234,0,-5.8261,-5.8346,-5.841,-5.8463,-5.8497,-5.8582,-5.8635,-5.8636,-5.8692,-5.8765,-5.883,-5.8919,-5.8989,-5.9137,-5.9164,-5.9245,-5.9232,-5.9335,-5.9244,-5.9243,-5.923,-5.9224,-5.9231,-5.9351,-5.9354,-5.9356,-5.9358,0,-5.8491,-5.8495,-5.8572,-5.8653,-5.8716,-5.878,-5.8839,-5.8884,-5.8892,-5.8957,-5.905,-5.9105,-5.9215,-5.9303,-5.9384,-5.9415,-5.9388,-5.9388,-5.9413,-5.9413,-5.9405,-5.9408,-5.9106,-5.9379,-5.9377,-5.9376,-5.9374,-5.9374,-5.8655,-5.8729,-5.8785,-5.8872,-5.8918,-5.8974,-5.9046,-5.9072,-5.915,-5.9239,-5.9236,-5.9339,-5.9395,-5.9501,-5.9538,-5.9619,-5.9584,-5.9621,-5.963,-5.9638,-5.9646,-5.9396,-5.9634,-5.9633,-5.9633,-5.9632,-5.9632,0,-5.8881,-5.8917,-5.8997,-5.9081,-5.915,-5.9122,-5.9186,-5.9245,-5.9336,-5.9392,-5.9463,-5.957,-5.9656,-5.9692,-5.9776,-5.9833,-5.9823,-5.9855,-5.9849,-5.9856,-5.9673,-5.9642,-5.9862,-5.9862,-5.9862,-5.9862,-5.9862,-5.9862,-5.9007,-5.913,-5.9141,-5.9286,-5.9321,-5.9421,-5.9461,-5.9513,-5.9557,-5.9679,-5.975,-5.9774,-5.9821,-5.9909,-5.9987,-5.9995,-6.0026,-6.0063,-6.0065,-5.9893,-5.9869,-5.9847,-5.9817,-6.007,-6.0071,-6.0241,-6.0242,-6.0244]},{"header":{"parameterUnit":"m.s-1","parameterCategory":1,"la1":30.2991,"la2":30.254,"lo1":-89.0895,"lo2":-89.0444,"dy":0.0017,"dx":0.0017,"nx":28,"ny":28,"refTime":"2025-03-27T21:00:00:Z","depth":0,"parameterNumber":3,"parameterNumberName":"V-component_of_WINDS"},"data":[0,0,0,0,0,0,0,0,0,0,0,0,0,0,0,0,0,0,0,0,0,0,0,0,0,0,0,0,0,0,0,0,0,0,0,0,0,0,0,0,0,0,0,0,0,0,0,0,0,0,0,0,0,0,0,0,0,0,1.9753,1.9753,0,1.9777,1.9777,1.9777,1.9736,1.9735,1.9734,1.9732,1.9755,1.9757,1.9759,0,0,0,0,0,0,0,0,0,0,0,0,0,1.9673,1.9674,1.9753,1.9753,1.9754,1.9777,1.9777,1.9778,1.9737,1.9735,1.9733,1.9732,1.9755,1.9757,1.9759,0,0,0,0,0,0,0,0,0,0,0,0,0,1.9703,1.9675,1.9753,1.9736,1.9735,1.9777,1.9777,1.9778,1.9737,1.9735,1.9733,1.9731,1.9754,1.9757,1.9759,1.9818,0,0,1.9768,1.9769,0,0,0,0,0,0,0,0,1.9701,1.9706,1.9738,1.9737,1.9736,1.9752,1.9757,1.9791,1.9738,1.9736,1.9732,1.973,1.9756,1.9758,1.9767,1.9819,1.982,1.9768,1.977,1.9771,1.9772,0,0,0,0,0,0,0,1.9699,1.9705,1.9762,1.9739,1.9737,1.9728,1.973,1.9763,1.9757,1.9736,1.9733,1.9737,1.9755,1.9764,1.9767,1.9821,1.9768,1.9771,1.9773,1.9774,1.9926,1.9928,0,0,0,0,0,0,1.9699,1.9703,1.9762,1.9763,1.9713,1.9731,1.9733,1.9749,1.9757,1.9756,1.9738,1.9735,1.9761,1.9764,1.9768,1.984,1.9771,1.9774,1.9776,1.9924,1.9927,1.9929,0,0,0,0,0,0,1.9698,1.9705,1.9761,1.9733,1.9739,1.9734,1.9752,1.975,1.976,1.9758,1.9757,1.975,1.9759,1.9764,1.9807,1.984,1.9775,1.9778,1.9921,1.9925,1.9928,1.9982,0,0,0,0,0,0,1.9696,1.9705,1.9727,1.9733,1.9741,1.9799,1.9754,1.9752,1.9765,1.9761,1.9769,1.9768,1.9758,1.9803,1.981,1.9842,1.978,1.9918,1.9923,1.9927,1.9977,1.9987,1.9995,0,0,0,0,0,1.9693,1.974,1.9728,1.9735,1.9768,1.9801,1.9805,1.9793,1.9768,1.9791,1.979,1.9768,1.9835,1.9808,1.9815,1.9849,1.9916,1.9921,1.9927,1.9973,1.9985,1.9995,0,0,0,0,0,0,1.9735,1.974,1.9727,1.9777,1.979,1.9794,1.9822,1.9805,1.9824,1.9819,1.9803,1.9805,1.9852,1.9855,1.9824,1.9908,1.9871,1.9878,1.9905,1.9916,1.9925,1.9923,1.9782,0,0,0,0,0,1.9751,1.9778,1.978,1.9824,1.9831,1.9826,1.984,1.983,1.9841,1.9846,1.9848,1.986,1.9884,1.99,1.9922,1.9978,1.998,2.0005,2.0014,2.0022,2.0028,2.006,2.0072,1.9947,1.9947,1.9946,0,0,1.9782,1.9788,1.9806,1.9833,1.9841,1.987,1.983,1.9861,1.9883,1.985,1.9892,1.9894,1.9907,1.9957,1.998,1.9961,2.0063,2.0028,2.0034,2.0036,2.0067,2.0079,2.0089,1.995,1.9949,1.9949,0,0,1.9855,1.9862,1.9901,1.991,1.9924,1.9921,1.993,1.9938,1.9939,1.9981,1.9958,1.9984,2.0025,2.0035,2.0046,2.0127,2.0108,2.0134,2.0181,2.0213,2.0223,2.0232,2.0262,2.0273,2.0141,2.0141,2.0141,0,1.9892,1.9935,1.9922,1.9957,1.997,1.9944,1.9984,1.9994,2.0014,2.0024,2.0003,2.0057,2.0063,2.0117,2.0137,2.0146,2.0157,2.0133,2.0223,2.0231,2.0239,2.0268,2.0279,2.0144,2.0144,2.0143,2.0143,0,1.9981,2.0011,2.0041,2.0063,2.008,2.0116,2.0111,2.0129,2.0119,2.0118,2.0163,2.017,2.0194,2.0206,2.0195,2.0259,2.0248,2.0225,2.0188,2.0255,2.0282,2.0292,2.0149,2.0148,2.0147,2.0146,0,0,2.0078,2.0096,2.0107,2.0118,2.0133,2.0156,2.0193,2.0218,2.0235,2.025,2.0281,2.0319,2.0299,2.0311,2.0302,2.033,2.0396,2.0304,2.0304,2.0322,2.047,2.0487,2.05,2.0384,2.0386,2.0387,2.0469,0,2.0152,2.0216,2.0208,2.0269,2.0298,2.0276,2.0308,2.0321,2.0322,2.0347,2.0348,2.0375,2.0346,2.0354,2.0381,2.0382,2.0425,2.0376,2.0413,2.0415,2.0411,2.0514,2.0531,2.0608,2.0479,2.0481,2.0482,0,2.0245,2.0267,2.0332,2.0345,2.0357,2.0386,2.041,2.0434,2.0449,2.0448,2.0464,2.045,2.0488,2.0451,2.0503,2.047,2.0485,2.0489,2.0491,2.0494,2.0453,2.052,2.0632,2.0644,2.0498,2.0497,2.0496,0,2.0312,2.0357,2.0402,2.0412,2.0428,2.045,2.0457,2.0471,2.0487,2.0508,2.0519,2.0544,2.0558,2.0577,2.0571,2.0544,2.0626,2.0588,2.0627,2.0628,2.0645,2.0644,2.0762,2.0654,2.0654,2.0653,2.0653,0,2.0395,2.0436,2.0433,2.046,2.0507,2.0498,2.0543,2.0548,2.0561,2.059,2.0572,2.0599,2.059,2.0617,2.0613,2.0658,2.0664,2.0665,2.0663,2.0667,2.0667,2.0677,2.0671,2.0656,2.0656,2.0655,2.0655,0,2.0477,2.0476,2.0524,2.0537,2.0542,2.0575,2.0586,2.0613,2.0614,2.0651,2.0659,2.0661,2.0692,2.0689,2.0723,2.0721,2.0778,2.0769,2.0773,2.0771,2.0812,2.0808,2.094,2.0957,2.0837,2.0838,2.0839,0,2.053,2.0561,2.0579,2.0598,2.0608,2.0638,2.0656,2.0649,2.0668,2.069,2.0715,2.0745,2.0769,2.0821,2.0825,2.0852,2.0845,2.0889,2.0849,2.0852,2.0847,2.0846,2.085,2.0897,2.0898,2.0899,2.09,0,2.0625,2.0624,2.0651,2.0679,2.0701,2.0722,2.0741,2.0758,2.0753,2.0776,2.0809,2.0828,2.0866,2.0897,2.0923,2.0931,2.0916,2.0913,2.0924,2.0928,2.093,2.0931,2.0796,2.091,2.0909,2.0908,2.0908,2.0908,2.0695,2.0723,2.0741,2.0772,2.0787,2.0806,2.0833,2.0838,2.0866,2.0897,2.0891,2.0929,2.0946,2.098,2.0992,2.1021,2.1005,2.102,2.1024,2.1029,2.1034,2.0925,2.1026,2.1026,2.1025,2.1025,2.1025,0,2.0791,2.0802,2.0831,2.086,2.0885,2.087,2.0891,2.0914,2.0948,2.0965,2.099,2.103,2.1061,2.1068,2.1098,2.1121,2.1115,2.1129,2.1127,2.113,2.1046,2.1034,2.1133,2.1133,2.1133,2.1133,2.1133,2.1133,2.0844,2.0891,2.0893,2.0949,2.0959,2.0997,2.1011,2.1029,2.1044,2.1089,2.1116,2.1121,2.1135,2.1167,2.1195,2.1196,2.1208,2.1226,2.1225,2.1146,2.1135,2.1125,2.1114,2.1228,2.1229,2.1306,2.1307,2.1308]}]]